La Palma > ESTACION METEOROLÓGICA Cumbre Nueva

DATOS ACTUALES Online

Ultima actulizacion 6 minutos

14.5 ºC

Temperatura

61

Humedad (%)

1015.8

Presión (mb)

0

Precipitación (mm)

15.66 NE

Viento (Km/h)

DATOS DIARIOS

Temperatura últimas 24 horas (ºC)

Humedad últimas 24 horas (%)

Presión atmosférica últimas 24 horas (mb)

Precipitaciones últimas 23 horas (mm)

Viento últimas 24 horas (Km/h)

Hora Temperatura (°C) ºC Precipitación (mm) mm Presión (mb) mb Humedad (%) % Viento (Km/h) km/h
15 - 23:00 17.4 0 1015 41 20.34 NE
16 - 00:00 16.8 0 1015 43 20.34 NE
16 - 01:00 16.7 0 1014 37 20.34 NE
16 - 02:00 16.3 0 1014 37 25.02 NE
16 - 03:00 15.6 0 1014 46 18.72 E
16 - 04:00 15.5 0 1013 45 23.4 NE
16 - 05:00 14.8 0 1013 49 26.64 NE
16 - 06:00 14.9 0 1014 49 23.4 NE
16 - 07:00 15 0 1014 51 21.96 NE
16 - 08:00 15.7 0 1014 57 18.72 NE
16 - 09:00 16.7 0 1014 57 23.4 NE
16 - 10:00 17.8 0 1015 58 15.66 NE
16 - 11:00 18.5 0 1015 55 15.66 E
16 - 12:00 19.1 0 1015 64 14.04 NE
16 - 13:00 18.7 0 1015 66 10.98 NE
16 - 14:00 18.8 0 1015 66 12.6 NE
16 - 15:00 18.9 0 1014 66 14.04 NE
16 - 16:00 18.4 0 1014 73 10.98 NE
16 - 17:00 17.7 0 1014 74 10.98 NE
16 - 18:00 16.6 0 1014 69 14.04 E
16 - 19:00 15.8 0 1014 66 14.04 NE
16 - 20:00 14.5 0 1014 74 20.34 NE
16 - 21:00 14.6 0 1015 68 15.66 NE
16 - 22:00 13.8 0 1015 67 20.34 NE
16 - 23:00 14.5 0 1016 61 15.66 NE
Apalmet utiliza cookies propias y de terceros para mejorar la usabilidad y la experiencia web. Política de cookies.